Wind_Speed
19 18 19 19 17 17 19 18 19 21 19 21 26 23 22 24 24 22 21 20 20 19 16 17 17 16 15 12 10 8 6 7 6 5 5 4 3 2 3 4 4 3 3 4 4 4 5 6 8 8 8 9 10 10 9 10 10 9 9 8 8 8 7 6 7 7 6 9 9 8 6 6 6 5 5 5 4 4 4 3 2 1 2 2 3
17 19 21 21 18 17 19 20 21 22 21 22 25 24 22 23 23 23 22 21 19 17 17 18 16 15 14 11 11 10 8 8 8 8 9 7 6 5 4 4 4 4 3 2 3 3 3 4 7 7 8 9 10 10 10 10 9 9 9 8 7 8 8 7 8 7 7 9 9 7 6 6 6 7 8 8 6 6 7 7 6 5 5 5 3
18 21 23 22 20 19 20 21 22 22 23 23 23 24 23 22 22 24 23 21 20 17 17 17 16 14 14 13 11 10 9 9 9 8 8 7 6 5 4 4 4 4 3 1 2 3 3 4 5 6 7 7 7 8 9 9 8 7 8 8 7 7 8 8 8 7 7 8 8 7 6 6 7 8 9 8 6 5 7 7 7 8 9 9 7
21 21 22 22 21 21 22 22 23 23 24 23 21 22 24 21 22 25 23 21 20 19 18 18 17 15 15 15 13 13 13 12 9 8 7 7 6 5 5 7 6 4 4 1 1 3 3 3 3 4 4 4 5 5 6 6 5 6 7 7 6 8 9 8 7 7 6 7 8 8 7 6 5 7 9 7 4 5 7 8 8 9 10 10 8
19 19 21 23 24 23 23 22 22 22 22 22 19 20 22 19 20 23 22 21 20 20 20 17 18 17 14 15 15 14 15 12 10 9 8 7 7 6 5 7 7 6 6 3 2 2 2 2 2 2 4 4 3 2 3 3 4 6 6 6 7 9 10 8 8 7 6 7 7 8 8 6 6 8 9 6 5 7 9 9 10 10 12 12 12
18 19 22 25 24 23 21 18 17 17 17 18 17 17 19 16 19 23 22 21 19 19 20 17 19 17 12 13 15 13 13 11 9 8 8 8 7 7 6 6 7 7 7 5 5 4 3 4 3 1 2 4 4 3 3 4 4 5 5 5 8 10 9 7 7 6 7 8 8 8 7 6 8 10 10 9 10 10 10 11 10 10 12 15 15
20 22 23 24 21 19 19 16 13 13 13 17 18 17 17 15 20 24 22 21 19 18 19 18 19 17 11 10 10 11 11 10 9 8 8 9 9 8 8 7 6 6 6 4 3 5 6 7 7 3 1 2 3 2 4 4 2 3 4 4 6 7 7 6 5 5 7 10 9 8 6 5 8 11 12 15 16 14 11 13 15 14 15 16 14
19 21 19 16 9 7 4 13 16 14 14 17 17 18 19 18 21 22 22 22 20 19 20 19 19 18 14 10 8 10 11 12 12 11 11 11 9 7 6 6 5 4 5 5 4 4 5 7 9 9 3 3 2 1 2 4 4 4 3 2 3 4 6 6 6 6 8 11 11 8 6 5 10 13 13 16 18 16 12 14 17 16 15 13 12
15 13 8 7 9 11 12 7 16 12 13 17 18 19 20 19 20 22 23 23 21 20 22 22 21 18 13 8 8 11 12 12 12 11 10 10 8 7 6 6 6 6 5 6 5 4 5 4 7 11 10 5 4 4 3 4 5 5 4 2 3 4 5 6 8 8 8 10 11 10 9 8 11 13 13 15 17 17 13 12 13 12 10 10 11
13 8 7 6 6 5 6 12 13 11 14 19 18 19 21 20 21 22 23 23 23 22 21 22 19 15 12 8 8 11 11 10 10 10 9 9 8 8 7 4 4 6 7 7 6 6 7 5 4 8 11 8 5 4 5 5 5 5 4 3 4 4 5 5 7 7 6 8 9 11 12 12 13 12 13 15 16 15 12 11 11 10 13 14 13
9 7 7 4 6 8 7 13 16 14 14 18 19 20 24 26 25 24 22 23 25 23 20 19 16 14 16 14 10 10 10 10 10 9 9 8 8 7 6 4 2 4 5 7 7 5 7 7 6 7 8 8 5 4 4 3 5 5 5 5 4 4 5 5 6 5 6 7 7 7 10 11 13 13 14 17 16 14 12 14 13 12 15 15 13
8 11 6 5 10 13 11 12 17 17 15 18 21 23 28 31 29 27 25 24 26 24 20 18 16 16 18 15 13 12 12 11 10 8 8 7 7 6 5 5 4 2 2 5 6 6 6 7 8 8 7 8 8 7 6 3 4 5 5 6 4 5 6 7 8 8 7 7 7 7 8 10 11 12 15 17 16 14 14 16 16 14 14 13 12
11 10 6 6 11 14 11 9 14 17 17 20 22 22 25 28 27 27 27 26 26 25 22 19 19 20 19 16 15 14 12 10 9 8 7 6 6 6 5 4 3 4 4 4 4 7 9 8 7 6 6 8 10 9 8 4 3 5 6 6 5 6 8 8 9 10 9 9 10 11 11 11 12 13 15 15 15 15 15 17 18 15 14 14 14
15 13 8 6 9 11 9 10 14 17 21 25 25 23 23 24 25 26 26 26 26 25 24 23 23 22 20 18 17 15 11 10 10 9 8 7 6 5 5 4 4 6 7 5 4 8 10 9 8 7 5 7 10 10 10 8 6 6 7 8 7 7 10 11 12 12 13 14 14 14 13 11 12 14 14 15 18 17 15 18 18 13 14 15 15
15 14 10 7 8 11 12 12 14 20 26 28 27 26 26 25 24 25 25 25 25 24 26 27 24 23 21 19 17 15 12 10 11 10 9 7 6 5 6 6 7 8 8 6 5 7 9 9 8 8 6 6 9 9 10 10 9 8 9 9 10 10 11 13 15 16 17 17 16 15 14 11 11 13 12 12 16 14 12 15 14 12 16 17 16
14 14 12 10 12 16 18 17 17 23 29 29 29 28 27 24 23 24 24 24 23 23 26 26 24 24 23 20 18 16 14 13 13 12 10 8 6 6 7 7 9 10 8 5 4 6 8 8 6 6 7 8 11 10 9 9 8 10 12 13 13 13 12 13 15 17 19 18 15 15 16 15 13 13 13 13 13 11 12 13 10 11 15 16 16
14 14 12 13 17 20 20 18 19 25 28 28 28 27 26 24 23 25 24 23 23 24 27 26 24 25 25 22 20 18 17 16 15 12 10 9 7 7 8 8 10 10 6 4 4 5 6 6 4 5 6 8 11 11 10 8 8 11 13 13 13 13 12 13 14 16 18 17 15 15 15 16 15 15 16 17 14 13 14 11 8 10 13 13 15
15 13 12 14 17 19 19 17 19 22 24 26 25 23 24 24 25 27 25 24 25 26 27 26 25 25 25 23 21 19 18 17 15 12 8 7 6 6 8 9 9 7 4 4 4 5 5 4 5 5 6 8 9 10 10 8 8 10 11 10 11 11 12 13 14 17 18 15 15 15 14 14 15 14 15 16 15 15 13 8 6 9 10 10 14
16 14 13 13 13 16 20 20 19 19 20 23 22 18 20 22 24 27 27 27 28 28 27 25 23 23 22 21 19 18 19 18 15 11 7 6 5 5 7 7 6 4 4 4 4 4 4 3 4 4 4 5 7 9 10 8 8 9 9 10 10 9 10 12 13 16 17 15 14 14 14 16 16 16 16 16 14 13 9 5 5 9 10 7 12
16 16 15 14 13 14 19 20 19 19 19 20 17 14 16 20 24 27 27 27 27 26 25 23 22 20 20 20 18 18 19 17 13 10 7 7 5 4 6 6 4 5 5 5 4 3 3 2 2 2 3 4 6 8 8 8 8 8 8 9 9 8 10 12 13 15 16 15 16 16 16 16 16 17 18 15 14 12 8 6 5 8 11 11 9
14 17 17 18 19 17 16 17 17 18 17 16 15 13 15 19 22 24 25 24 24 23 22 20 20 19 19 18 17 17 17 14 12 9 8 8 6 4 6 6 5 6 5 5 5 3 3 2 1 2 2 3 5 6 7 8 9 9 8 9 10 10 12 14 15 16 14 14 17 19 18 15 14 15 13 11 12 10 7 8 7 6 9 11 6
15 18 19 19 21 20 17 17 18 19 19 18 16 15 15 17 18 18 18 17 17 18 18 18 19 19 18 17 16 15 14 12 11 9 9 9 7 6 7 7 7 7 6 7 6 5 5 4 4 4 3 4 4 6 8 8 8 10 11 12 11 11 13 15 15 14 14 14 16 17 15 14 15 14 11 9 8 7 7 10 9 6 9 10 7
16 16 16 16 17 16 15 18 20 21 21 20 18 16 16 16 15 14 13 12 12 13 13 14 15 15 15 16 16 15 13 12 11 10 10 10 8 8 9 9 8 7 8 8 6 6 6 6 6 5 4 5 5 6 8 8 9 12 14 13 11 12 14 15 14 13 14 14 14 13 11 11 14 14 12 11 8 6 9 11 9 6 6 9 9
17 17 17 17 17 16 15 18 19 18 17 15 13 12 13 15 15 14 13 13 12 11 11 10 9 9 10 12 14 14 14 13 12 11 12 11 10 10 11 10 9 8 9 9 7 6 7 7 7 6 5 6 6 6 6 7 9 13 14 12 12 13 15 15 12 12 13 12 11 11 9 9 12 12 12 12 9 7 5 2 3 2 1 5 7
19 19 17 16 16 17 17 16 16 15 13 11 10 10 11 11 11 11 11 10 10 10 10 10 9 10 10 11 13 14 13 13 13 13 14 12 11 11 11 11 10 9 9 9 8 8 8 8 8 7 7 6 6 6 6 6 8 12 13 12 12 13 14 13 11 9 10 9 8 7 7 7 9 8 8 9 9 7 4 2 2 1 2 5 7
20 19 17 17 17 18 18 17 15 15 13 12 12 11 11 11 10 9 8 8 9 10 10 10 10 10 11 10 11 12 12 12 13 13 13 13 12 12 11 11 11 11 11 10 9 8 9 9 8 8 8 7 6 6 7 7 8 10 11 11 11 13 14 13 11 9 9 8 7 6 6 6 7 7 6 7 7 7 6 6 5 2 2 3 4
19 19 19 19 18 18 18 17 16 16 15 14 13 12 11 12 11 9 7 7 9 9 8 9 9 10 10 10 9 10 11 12 12 11 11 12 13 13 12 11 11 11 11 11 10 9 9 9 8 8 9 8 7 7 8 9 9 10 10 11 11 13 14 13 12 11 9 9 7 6 5 5 5 6 7 6 6 6 7 7 6 5 3 2 3
19 20 20 19 18 18 18 18 17 17 16 15 14 13 12 11 10 9 8 8 8 8 7 8 9 10 9 9 9 10 11 11 11 11 10 11 12 13 14 13 11 11 10 10 10 10 10 10 9 8 9 9 8 9 10 10 10 11 11 12 11 12 12 12 12 11 10 10 9 9 7 6 6 8 9 7 6 6 7 7 8 9 7 5 5
20 20 20 20 20 19 18 17 17 17 17 15 15 15 14 12 11 11 10 9 8 8 7 7 7 8 8 7 7 8 9 10 10 11 11 11 11 11 13 14 12 10 9 9 9 9 10 10 10 9 9 10 10 10 10 11 11 12 13 13 13 12 12 12 13 12 11 10 10 12 11 10 10 10 10 8 7 8 8 8 9 11 12 11 9
19 19 20 21 22 21 20 20 19 18 17 16 15 14 14 12 11 11 10 9 9 9 8 7 7 7 6 5 4 4 6 6 7 8 9 9 9 10 11 13 13 11 11 12 12 11 11 11 11 10 9 10 11 11 12 13 13 14 15 16 15 15 15 14 15 13 13 13 14 15 14 13 12 12 10 9 9 9 9 9 9 11 14 14 11
18 20 20 21 21 21 21 21 21 19 18 17 15 13 12 12 10 10 9 7 8 8 8 9 9 8 7 6 4 4 4 3 3 4 5 6 7 8 9 11 14 14 14 15 14 13 13 14 13 12 12 14 16 15 15 15 16 17 17 18 18 18 17 16 16 16 16 18 18 17 15 15 14 14 12 10 10 11 11 11 11 14 16 14 11
18 21 22 21 22 22 21 21 21 20 18 19 18 15 14 13 12 11 9 8 8 8 8 9 9 8 7 5 4 4 3 3 3 3 3 4 5 7 8 11 13 14 15 16 16 15 15 17 18 18 19 21 22 22 21 19 19 19 20 20 20 20 19 18 18 19 19 21 21 18 18 18 16 15 13 12 13 15 16 15 14 16 18 18 15
20 21 20 19 19 19 21 22 21 21 20 19 20 19 16 12 10 10 9 8 9 10 11 10 9 9 7 5 5 5 3 2 2 1 2 3 4 6 7 9 11 11 13 15 17 18 19 20 20 21 23 23 21 22 24 23 21 22 24 24 24 23 22 22 22 23 24 24 22 19 19 18 16 15 15 15 17 19 19 18 16 16 18 19 18
19 18 18 17 16 15 17 18 17 18 18 17 19 20 17 11 10 13 13 10 10 9 10 11 10 8 8 7 6 5 4 4 4 4 3 3 4 5 6 9 10 10 12 14 16 19 21 23 23 23 25 25 23 22 23 23 23 25 27 27 27 26 25 25 25 25 25 24 22 20 21 20 18 18 17 17 18 19 19 17 15 15 17 18 18
16 15 14 14 14 14 14 14 14 13 13 13 14 15 15 13 14 16 16 15 14 12 10 11 11 9 9 9 8 6 5 4 4 4 4 5 6 6 6 8 9 9 11 13 15 17 19 21 23 24 26 27 26 24 24 24 24 26 28 28 28 28 28 28 28 25 22 21 20 17 17 19 18 17 16 16 15 15 16 16 14 14 16 18 18
14 13 13 12 11 12 12 12 12 10 9 10 10 11 12 12 12 13 13 14 17 14 9 8 10 10 10 11 10 8 8 7 4 4 4 4 6 7 8 8 9 9 10 12 14 15 17 18 19 21 24 26 25 24 25 27 26 27 29 30 31 31 30 31 31 27 23 22 21 17 15 15 14 13 14 14 14 16 17 17 16 16 18 19 19
12 11 10 9 8 9 10 10 9 8 7 7 7 8 8 8 8 8 8 9 11 10 5 4 7 8 9 10 9 8 9 9 6 5 6 6 7 8 8 8 10 10 10 12 13 14 15 16 17 19 20 22 23 23 24 27 29 30 31 32 32 32 31 32 32 29 25 24 24 20 17 14 12 14 16 15 16 18 17 15 14 16 18 19 18
8 8 8 9 8 7 8 9 9 9 9 9 9 8 7 6 8 9 8 7 9 9 8 8 10 11 11 11 10 9 9 10 8 8 8 8 9 9 8 8 9 11 12 12 14 15 16 16 17 17 18 21 22 22 22 24 27 30 32 33 33 32 31 31 30 28 25 24 23 21 19 18 17 18 19 18 16 16 15 15 15 16 18 18 18
9 8 9 11 12 11 10 11 11 10 10 10 10 10 9 9 9 9 9 8 6 7 9 10 11 12 13 14 13 12 11 12 12 11 11 10 10 11 11 11 11 12 13 14 15 16 16 18 19 20 19 20 21 21 20 23 25 27 29 31 32 31 30 28 26 25 24 23 22 20 20 21 21 20 21 20 17 15 16 16 14 14 15 15 14
8 7 7 8 9 8 8 8 8 8 8 8 7 7 7 7 7 8 8 7 7 9 10 9 10 12 13 14 13 12 12 14 14 15 16 16 15 15 15 14 14 14 15 16 17 17 16 17 20 22 21 21 21 21 20 22 25 26 25 27 29 29 28 26 24 22 21 20 20 20 20 22 22 21 21 19 17 16 16 14 12 12 13 12 12
6 7 7 6 4 4 4 4 4 5 6 6 6 6 5 5 6 5 6 9 12 14 14 14 14 14 16 17 17 16 16 18 19 20 21 22 22 21 20 19 18 17 17 18 19 20 20 19 20 22 23 23 24 22 19 20 24 27 26 26 26 26 27 27 25 21 19 18 19 20 21 23 22 19 18 18 17 17 17 17 17 17 16 15 16
6 6 5 5 5 3 2 3 2 3 5 6 7 6 5 6 6 6 8 12 14 15 16 16 17 18 19 20 21 21 21 22 24 24 25 26 26 25 24 22 21 19 19 20 21 22 22 21 21 21 23 25 25 22 19 20 23 26 27 27 26 26 28 29 25 20 18 18 19 20 22 22 21 18 17 17 17 18 20 20 20 19 18 18 17
6 4 3 5 5 2 3 3 2 4 5 6 6 6 6 8 8 8 11 12 12 13 14 15 17 18 19 20 22 23 22 22 22 22 23 25 26 26 25 25 24 24 23 23 23 24 23 23 23 22 23 25 25 21 19 19 20 25 28 27 27 28 29 27 22 18 17 17 17 19 21 20 20 19 18 17 18 19 20 21 21 19 18 18 17
5 2 4 6 5 3 4 4 3 5 6 7 7 7 8 9 8 9 12 12 12 13 13 14 15 16 17 18 19 20 20 21 21 20 19 21 22 23 24 25 25 26 26 26 25 25 25 24 23 23 25 27 27 25 22 18 20 25 27 27 28 29 26 21 17 19 21 19 15 16 19 19 19 19 18 17 18 19 20 22 22 20 19 19 18
4 2 4 4 4 3 3 3 3 5 7 9 9 8 8 8 9 10 11 11 12 13 13 14 15 15 16 17 17 18 18 18 19 19 20 20 20 21 22 23 24 24 26 27 27 26 26 26 24 25 27 27 27 27 24 20 21 26 28 28 29 26 22 20 21 23 25 21 15 15 18 19 18 18 18 18 18 19 20 21 22 21 19 17 15
3 2 4 4 3 2 1 2 3 4 5 6 6 6 8 9 10 12 12 12 14 15 16 16 16 16 16 16 16 17 17 18 18 18 19 20 21 20 21 22 23 24 25 26 27 28 28 27 25 25 26 25 25 25 24 23 23 26 30 31 29 23 22 24 25 24 24 22 16 15 17 18 17 17 18 18 18 18 18 19 19 17 15 13 13
3 3 4 4 3 1 2 3 4 4 5 5 6 7 8 9 10 12 13 14 15 16 17 17 17 18 18 18 18 18 19 20 20 19 18 19 19 20 21 21 22 23 25 26 27 27 28 28 28 25 22 22 22 22 23 24 23 25 28 30 28 23 24 28 27 25 24 22 17 16 17 17 17 17 16 16 16 16 16 15 14 12 12 12 12
3 3 3 3 2 2 3 3 4 5 5 5 6 7 8 10 11 12 13 14 15 16 16 16 16 17 17 17 18 18 18 19 20 19 19 19 19 19 21 22 22 20 21 22 22 22 23 26 30 30 26 24 24 23 23 26 26 26 28 30 27 24 26 28 27 25 24 20 17 16 16 16 16 15 14 14 14 14 13 12 11 10 11 11 11
3 3 2 2 1 2 3 4 4 5 5 6 7 8 10 11 12 13 14 14 15 15 15 14 14 15 15 16 16 17 18 19 19 20 21 22 21 19 18 21 24 25 23 22 22 20 18 19 24 30 31 31 30 28 26 26 28 29 30 32 30 28 28 27 26 25 24 20 16 15 16 16 15 14 14 13 13 13 12 11 9 9 8 7 7
4 3 2 1 2 3 3 3 4 5 6 7 8 10 11 12 13 13 14 15 15 14 13 13 13 13 15 16 17 18 18 19 20 20 21 22 23 22 18 17 21 26 30 29 28 26 22 21 22 25 27 29 29 29 27 25 28 32 35 35 33 30 28 26 25 25 24 20 16 15 15 14 13 13 13 13 13 12 11 11 10 10 9 8 7
4 3 2 2 3 3 3 3 5 5 7 8 9 11 12 12 13 13 14 14 13 13 12 13 13 14 16 18 19 19 19 19 20 20 20 22 23 23 24 21 19 21 26 29 30 29 28 27 26 23 23 24 25 25 25 24 28 33 34 31 28 27 26 24 24 25 22 17 14 13 12 11 11 12 12 12 11 10 11 11 10 8 10 12 11
Wind_Direction
191 197 196 194 183 174 185 177 173 187 186 178 172 169 172 164 160 162 160 160 158 151 143 144 146 136 138 141 130 130 144 149 155 172 183 180 164 158 143 138 143 149 150 161 177 177 172 199 203 190 197 198 193 196 198 199 204 209 209 207 211 210 215 229 212 199 188 155 160 206 191 155 169 162 134 120 126 151 161 180 201 174 151 148 201
191 202 202 196 184 175 181 177 180 191 189 182 174 170 169 161 160 162 158 156 153 146 139 137 134 131 132 129 132 149 156 155 170 185 191 186 174 178 158 134 135 135 135 140 154 170 169 188 205 201 198 198 197 198 199 199 200 206 208 200 198 209 214 219 215 204 195 168 160 195 189 153 148 143 128 120 126 137 131 130 135 142 128 111 135
196 203 201 196 190 183 186 187 192 196 186 178 173 167 161 156 157 155 152 151 147 143 138 132 131 132 134 139 147 148 148 168 186 186 188 187 181 188 164 121 93 99 109 117 141 148 148 156 181 199 203 200 196 198 201 200 202 201 199 197 191 200 211 214 213 208 203 183 164 175 181 156 141 138 134 131 134 128 120 123 127 135 130 117 116
196 198 197 196 194 190 192 195 196 194 183 171 167 163 154 151 154 149 148 149 144 144 143 138 141 142 141 152 157 153 165 182 176 157 160 164 163 178 165 130 120 127 120 99 174 153 156 147 148 167 180 188 185 190 200 200 206 203 198 202 191 192 210 216 212 210 211 198 176 172 175 169 157 149 146 143 131 111 107 105 108 117 122 119 118
198 198 201 201 198 195 195 198 194 186 176 163 156 155 147 145 153 148 144 146 144 147 150 145 145 141 139 157 165 167 174 171 154 147 145 151 160 169 159 133 134 137 128 143 184 161 165 144 114 131 151 156 152 152 183 178 180 195 203 207 196 200 214 211 199 198 204 203 185 174 172 175 185 170 154 142 121 114 105 96 100 107 106 101 98
199 205 209 204 199 196 191 192 188 177 171 157 139 135 133 134 146 145 142 145 146 149 149 144 142 139 139 162 171 167 160 154 152 145 137 153 163 154 148 142 143 139 141 173 181 150 135 133 126 123 132 138 149 157 151 142 157 177 178 183 193 204 212 203 190 188 194 193 185 183 185 190 192 177 153 129 112 109 103 98 100 97 97 96 93
196 208 212 207 201 196 191 182 156 128 126 130 122 123 130 135 143 147 148 148 149 150 148 145 140 133 138 164 168 154 152 164 165 154 163 179 176 167 165 153 148 147 145 157 157 140 137 139 143 149 28 61 109 157 152 136 141 166 163 162 174 191 205 204 191 191 200 199 190 185 190 188 180 172 154 134 120 113 110 115 120 116 113 112 115
201 210 212 204 168 102 144 181 160 118 108 127 133 137 143 145 150 153 153 153 153 150 148 147 139 136 149 172 172 161 172 179 173 173 186 184 169 161 149 132 131 144 137 124 115 118 130 141 144 144 119 41 55 236 185 160 158 164 185 188 152 174 195 195 190 187 195 205 203 192 190 171 166 168 157 143 131 127 128 128 131 131 127 120 123
208 209 180 145 119 68 43 121 158 146 135 145 152 155 153 149 152 157 157 158 159 156 153 150 144 148 162 179 185 188 190 181 176 181 179 166 146 136 148 162 168 164 145 131 130 121 117 132 149 146 138 140 197 220 177 159 168 175 196 201 177 184 184 181 185 179 175 194 198 188 189 180 171 169 160 153 142 135 138 138 133 131 125 116 115
202 190 138 109 137 164 69 88 130 151 146 148 154 159 157 156 159 159 161 166 167 165 161 154 150 154 160 166 190 202 191 172 177 179 164 156 149 153 173 183 177 174 159 144 148 147 135 133 145 148 145 150 180 188 158 158 163 161 158 153 167 178 173 172 178 177 172 183 187 180 183 186 183 175 162 161 154 144 144 142 136 127 118 114 111
171 135 151 136 111 150 134 107 126 143 151 162 171 168 164 167 169 165 168 176 175 170 165 159 155 157 161 162 178 192 182 178 188 175 156 154 150 154 161 148 177 205 176 158 155 152 149 143 125 123 135 136 128 113 114 140 149 139 119 117 132 146 152 165 163 158 162 164 166 169 178 186 186 177 169 168 162 153 145 135 132 126 117 117 119
129 103 135 157 133 139 128 116 129 139 155 173 181 179 172 170 171 170 174 179 177 172 170 169 164 165 170 168 171 186 188 192 193 166 154 157 150 156 161 171 202 200 170 180 164 141 127 124 123 124 129 127 118 107 98 107 146 143 118 111 116 118 122 141 146 139 138 139 137 138 148 166 172 167 168 169 162 154 150 141 136 129 122 126 132
128 130 169 178 153 142 132 141 147 151 168 176 179 179 174 172 174 174 174 175 174 170 172 176 171 169 174 173 175 189 193 192 185 166 168 171 164 176 171 177 193 161 184 217 165 134 124 123 132 131 127 129 126 119 108 89 105 137 132 118 111 112 115 129 140 134 122 117 118 110 108 125 140 149 160 164 158 156 157 147 138 134 133 138 139
134 146 164 163 157 150 157 169 160 163 175 177 178 182 181 181 180 176 172 171 171 171 172 174 171 170 174 178 180 184 186 186 181 171 176 180 175 177 168 178 186 179 203 212 153 145 145 147 147 129 127 141 137 130 118 100 92 114 129 124 117 114 114 118 123 123 116 113 111 104 100 103 109 122 138 148 148 152 162 153 140 138 145 146 144
138 144 142 143 158 156 156 152 151 166 171 171 176 181 182 181 178 177 175 172 172 174 173 171 169 170 174 178 176 174 177 180 178 174 180 189 183 169 172 191 191 197 223 221 181 166 153 149 150 139 135 132 127 129 129 128 129 121 115 114 111 107 113 120 122 122 117 112 109 111 116 116 106 109 121 140 142 139 149 150 141 150 161 155 145
129 134 131 137 155 154 154 151 152 162 164 167 173 175 175 173 172 175 174 172 173 175 175 171 168 169 170 171 169 170 172 171 177 180 181 187 185 176 181 191 203 218 241 236 195 174 161 158 158 141 128 120 122 129 134 143 148 129 114 111 108 108 115 122 126 128 123 118 121 128 130 132 132 131 132 141 145 133 130 133 133 154 160 149 137
122 131 135 148 163 161 158 157 157 161 161 161 165 169 171 168 169 172 169 169 172 174 176 174 171 170 169 169 169 170 168 170 183 185 179 183 184 183 183 193 219 237 247 220 186 167 167 166 144 127 128 131 136 142 143 143 147 139 132 128 126 125 124 122 124 125 120 118 124 130 134 138 145 149 141 136 138 133 129 128 130 146 153 151 144
109 120 131 150 165 162 156 154 158 165 161 152 154 166 173 173 174 173 169 168 170 171 175 175 173 172 171 173 174 171 167 174 187 185 174 178 183 188 193 207 234 246 227 199 177 157 160 148 130 130 129 132 139 144 143 144 152 152 146 140 137 139 135 129 127 125 121 122 127 130 135 139 143 149 143 136 136 136 137 136 122 129 142 162 161
107 110 119 139 156 159 161 159 155 158 155 149 152 164 173 176 174 171 169 168 168 172 175 175 172 170 171 172 175 173 171 178 186 182 172 176 186 191 197 216 242 237 207 184 164 163 160 145 145 142 132 135 140 141 143 152 159 151 141 139 141 144 139 132 134 135 131 131 133 129 122 117 120 127 128 127 129 130 139 149 126 120 109 114 157
121 117 118 128 132 149 165 161 150 146 144 143 146 153 166 173 171 167 166 166 168 172 175 173 169 171 172 174 178 179 178 178 177 172 166 174 193 201 198 216 224 210 200 171 162 175 166 170 186 154 145 148 138 137 144 146 140 136 141 143 137 131 130 127 128 129 125 123 123 117 110 108 114 122 124 128 132 130 134 136 125 118 95 83 127
116 113 111 117 116 121 140 143 136 134 132 133 134 136 154 168 170 166 163 164 170 174 175 174 172 175 178 177 181 183 179 174 169 164 161 174 201 212 203 209 197 191 184 158 159 165 159 164 126 116 139 151 150 150 144 134 132 141 143 133 123 125 129 125 119 118 120 126 127 121 117 114 112 113 112 117 121 111 96 94 88 99 100 85 80
108 109 109 117 118 115 123 131 131 130 129 135 141 147 157 164 166 165 160 160 165 169 173 176 176 177 178 175 176 179 176 169 168 167 165 180 205 213 205 199 185 182 167 153 165 168 157 148 131 138 143 133 148 150 138 140 151 151 135 123 126 136 135 128 126 130 132 135 137 134 130 126 119 112 109 113 107 82 92 109 102 102 118 109 90
115 116 115 118 119 117 122 129 132 134 135 137 140 150 157 155 149 149 150 148 148 149 152 157 161 165 166 167 170 174 173 167 171 173 169 183 203 207 205 196 184 178 156 155 183 179 161 158 152 160 154 134 141 146 148 165 172 153 136 134 150 155 145 140 142 146 143 142 147 148 142 137 133 127 130 141 136 112 128 144 141 132 144 142 124
131 128 124 123 124 125 128 130 130 133 135 131 124 129 137 138 139 141 145 150 152 149 144 145 158 164 161 165 170 173 172 169 171 172 172 183 198 204 204 194 187 181 158 163 195 183 165 172 170 169 165 154 158 162 166 180 176 159 149 154 167 166 156 150 151 154 155 157 160 157 152 147 148 146 148 161 154 114 106 146 149 116 121 163 157
123 122 118 115 118 121 125 132 133 129 131 127 117 119 121 122 130 134 132 137 142 142 142 150 168 171 161 162 169 172 173 171 170 172 175 182 192 201 205 198 193 187 167 174 197 183 174 187 185 179 177 174 178 176 168 176 178 170 167 172 174 170 163 154 153 165 174 176 174 173 171 163 169 171 160 167 164 127 97 80 90 30 48 132 163
100 102 101 98 98 102 110 121 125 123 125 122 116 117 119 117 119 121 120 122 125 127 134 142 149 152 151 154 162 167 169 171 174 177 178 180 185 196 205 202 200 194 180 184 194 184 186 198 192 186 190 196 201 187 170 178 189 184 185 188 184 179 172 164 166 177 184 185 180 185 193 187 189 186 167 177 182 162 152 150 146 154 139 140 151
90 89 91 93 95 96 100 104 108 112 116 118 117 115 115 116 113 107 109 117 122 125 129 130 127 133 143 149 156 165 169 174 180 182 182 183 187 194 199 198 202 204 196 195 195 188 194 205 200 197 203 209 215 204 190 194 199 195 196 197 196 192 186 184 190 190 194 198 182 176 202 205 193 184 183 204 215 198 189 188 189 182 171 222 205
91 91 89 89 91 97 102 101 99 97 95 98 103 102 103 108 103 96 97 108 118 118 111 113 119 126 138 149 157 165 170 175 181 184 188 195 196 197 195 191 198 210 208 207 206 198 199 205 204 209 215 216 217 213 210 216 217 214 214 210 210 210 203 206 214 209 214 220 194 175 193 207 204 206 214 227 233 224 222 224 222 211 198 212 213
91 90 84 76 72 78 90 97 99 97 91 87 85 82 80 81 81 82 84 85 91 98 101 111 120 122 131 145 153 160 167 175 183 188 195 202 203 200 193 187 194 208 210 211 214 210 212 212 207 213 221 223 224 219 218 226 227 229 235 231 228 231 227 226 230 220 217 224 207 195 210 223 220 219 225 231 232 240 252 256 240 224 215 219 221
93 89 81 72 65 65 70 76 80 83 84 84 83 84 84 80 75 76 80 80 81 87 90 92 96 101 109 116 121 139 156 171 185 193 198 202 201 199 192 186 189 199 210 217 215 212 219 221 214 215 222 226 228 224 223 228 228 229 238 242 240 240 237 234 238 230 213 209 208 209 217 225 222 222 226 229 233 245 259 259 244 230 227 232 236
95 86 74 66 62 62 67 69 69 70 74 76 79 82 82 79 76 75 74 75 82 87 86 86 88 87 85 85 91 113 136 152 172 189 197 201 203 204 201 194 193 199 211 218 215 211 216 222 218 215 217 220 218 214 217 227 229 227 232 238 240 242 240 234 233 229 212 207 212 216 217 221 228 235 236 234 242 252 259 258 244 233 234 241 250
80 68 58 52 50 51 55 58 59 63 70 77 79 74 67 67 72 77 79 78 77 77 75 76 78 76 73 67 66 84 111 126 126 154 183 202 213 212 210 208 208 213 220 224 226 225 222 223 222 217 218 222 219 211 211 220 228 231 234 238 241 243 241 234 229 226 221 219 220 219 217 222 232 242 241 244 257 259 255 253 244 233 236 244 254
64 57 50 47 46 46 46 47 51 56 60 72 82 77 67 65 68 68 75 86 83 72 66 66 66 66 62 47 46 54 43 37 56 121 188 208 235 236 232 231 230 234 239 243 247 245 237 231 231 228 226 229 230 221 217 220 225 230 236 242 246 247 246 244 239 232 228 225 221 220 225 230 237 244 246 253 262 256 246 245 244 237 240 248 256
65 62 55 51 54 62 62 59 63 65 64 73 81 70 60 70 81 68 62 74 87 80 67 62 59 60 57 48 51 54 31 20 11 346 325 285 268 257 252 254 253 250 249 250 251 249 244 239 239 239 235 235 237 233 229 230 231 231 235 241 246 247 248 249 244 234 231 231 229 232 239 242 245 251 256 259 257 247 237 237 242 242 246 252 257
84 82 78 71 69 73 76 75 74 72 68 72 73 62 60 76 84 72 62 63 69 72 71 64 56 55 53 41 36 35 26 24 14 351 332 311 298 286 271 264 259 254 250 248 247 248 249 248 246 246 246 246 246 241 240 244 242 236 236 239 243 245 245 246 243 238 239 245 246 240 236 239 244 247 249 246 237 229 226 224 226 234 244 249 251
100 96 94 91 84 76 77 79 76 74 69 63 59 59 67 77 77 73 71 65 57 58 72 73 57 50 43 32 27 23 10 359 351 334 314 302 298 292 286 278 267 260 254 251 250 250 251 253 252 252 253 255 254 248 248 251 249 243 241 242 244 245 245 246 247 247 250 254 255 249 239 239 238 228 224 222 211 208 214 215 215 224 235 240 243
100 98 91 88 91 89 87 81 72 71 66 58 58 64 74 83 73 61 66 60 42 33 38 40 25 20 17 13 16 15 360 346 334 324 311 293 277 271 278 286 285 282 272 262 262 263 262 261 257 254 255 258 258 254 253 255 252 248 247 247 247 247 247 245 248 252 253 249 246 245 248 248 230 208 206 210 210 212 215 216 218 223 230 237 242
98 100 83 67 61 67 76 66 50 43 34 25 27 31 33 43 40 26 20 22 14 358 340 332 334 338 341 339 336 336 330 320 313 309 299 286 273 263 262 269 277 282 277 270 268 269 270 270 268 263 261 260 261 259 255 251 249 248 248 249 249 250 249 246 247 251 251 245 240 241 246 245 230 208 198 200 210 217 219 221 224 226 231 239 243
73 73 60 47 40 37 39 36 29 27 21 12 11 9 1 360 2 355 352 359 353 328 317 317 317 313 310 309 307 306 302 296 290 283 277 274 272 267 264 262 264 270 273 274 273 270 269 270 269 268 268 266 266 265 258 251 249 248 246 246 248 249 248 246 245 247 245 241 239 238 235 231 223 206 193 196 208 216 218 221 223 224 232 242 245
82 80 66 49 42 40 37 29 19 14 14 10 4 1 356 344 334 332 330 318 294 284 286 287 284 282 283 287 289 286 279 274 271 270 270 269 269 270 271 269 266 266 267 268 267 265 264 267 267 266 266 265 264 265 261 254 252 250 245 241 242 244 243 240 239 238 237 233 230 227 220 215 210 198 193 201 213 214 210 208 205 209 224 240 244
95 96 92 79 72 75 62 42 15 358 359 356 348 352 352 333 322 318 295 282 281 284 286 283 280 279 279 281 280 274 268 265 266 269 273 276 277 277 277 275 272 269 268 267 266 262 260 261 264 264 264 265 267 268 264 255 251 250 248 244 243 241 238 236 232 229 230 234 231 223 212 203 201 200 202 210 214 207 198 194 195 203 214 227 235
81 83 77 69 80 88 54 42 19 349 348 346 350 357 345 325 318 299 282 283 286 287 286 284 282 278 275 274 273 271 270 272 274 276 277 278 278 278 277 275 272 269 268 267 267 266 263 260 261 262 262 265 267 268 264 256 249 248 246 244 242 237 231 230 229 222 224 232 229 217 207 201 203 208 210 208 205 200 196 197 202 209 214 221 230
75 67 16 39 66 45 5 35 25 346 348 350 359 8 356 349 345 326 317 319 315 308 303 298 293 288 283 277 272 270 270 272 276 279 280 279 278 278 276 273 270 269 267 266 264 264 264 261 261 261 259 260 262 262 260 255 248 246 246 241 235 229 227 228 223 207 206 219 216 205 203 204 204 206 206 202 200 200 202 204 208 214 218 223 230
69 35 344 25 45 359 357 29 359 340 358 10 16 15 4 1 355 339 338 339 331 325 321 316 312 309 304 298 293 287 280 274 270 270 273 277 279 279 276 273 272 270 267 266 265 263 262 260 261 261 260 259 259 258 257 251 239 240 243 237 227 222 220 217 204 191 199 213 212 199 199 201 200 201 202 201 203 206 208 210 213 219 226 229 235
61 5 338 17 34 -0 5 22 346 348 8 14 14 6 352 347 339 332 333 328 319 317 315 312 311 311 309 309 308 305 300 292 282 272 267 267 271 276 277 274 271 268 266 264 262 261 261 261 261 262 264 263 257 253 257 256 241 236 237 230 219 212 201 188 186 192 202 213 214 200 197 198 199 201 203 204 207 209 212 216 220 227 234 238 241
55 3 344 13 32 15 24 24 -0 1 6 1 351 335 326 325 323 323 322 316 313 312 308 306 306 304 302 303 302 302 301 299 294 286 278 272 268 269 272 273 272 269 267 266 265 262 261 260 261 262 264 265 261 256 256 257 247 241 236 221 207 198 187 182 187 196 201 207 209 201 197 197 198 201 205 207 209 212 215 220 225 231 237 238 237
36 354 346 14 32 23 16 7 351 345 342 335 326 321 321 320 318 318 315 311 309 305 301 302 304 301 300 300 300 299 296 294 296 298 297 294 288 280 274 272 275 274 271 269 269 268 264 261 260 258 255 257 259 257 255 253 250 246 234 215 200 196 192 187 189 194 198 203 204 196 193 198 202 205 207 209 212 216 220 224 229 233 234 234 237
11 343 345 21 51 27 357 342 332 333 334 331 327 325 323 320 318 316 313 308 304 297 295 300 304 303 302 302 302 300 298 299 301 299 293 289 291 292 285 273 269 273 275 272 268 268 270 266 257 250 250 254 256 254 254 251 246 237 221 205 200 202 198 191 189 191 194 199 200 194 194 199 203 206 209 213 217 221 226 230 233 234 234 237 245
355 343 357 33 20 349 344 338 337 339 336 334 333 328 324 322 320 317 313 309 303 298 299 303 304 304 304 304 303 301 302 302 300 296 289 278 270 275 285 281 270 263 267 273 273 272 280 281 265 252 252 257 258 256 254 249 242 234 219 206 201 202 200 196 195 196 198 199 196 194 196 199 203 207 211 215 220 224 228 228 221 220 231 243 251
343 343 2 5 339 342 353 350 344 343 339 335 331 326 325 325 323 319 315 312 308 305 305 305 305 305 303 299 298 298 300 300 298 296 294 286 272 261 263 275 274 263 261 269 276 274 275 286 285 269 258 257 260 260 254 242 234 231 223 211 202 200 200 200 198 200 204 204 200 200 200 202 209 214 215 220 225 224 224 222 215 210 212 216 224
347 345 345 349 350 354 356 347 342 343 339 333 332 333 331 324 317 315 316 314 310 306 306 306 306 305 300 295 296 297 296 296 297 295 294 294 289 276 264 263 268 268 264 266 271 273 274 278 283 281 271 264 262 261 255 242 232 227 221 210 202 201 202 203 203 203 203 198 196 201 202 205 215 220 220 223 224 220 220 224 226 218 210 212 218
Height
1478 1479 1480 1480 1481 1481 1481 1481 1481 1482 1484 1487 1489 1492 1493 1497 1500 1502 1505 1509 1511 1514 1516 1518 1520 1521 1523 1524 1526 1527 1528 1530 1532 1534 1534 1535 1536 1536 1537 1537 1537 1537 1536 1536 1535 1535 1536 1536 1536 1536 1537 1537 1538 1538 1539 1539 1540 1542 1543 1544 1545 1546 1547 1548 1549 1550 1551 1555 1558 1556 1556 1556 1556 1557 1557 1558 1559 1559 1559 1560 1561 1562 1562 1563 1564
1476 1478 1478 1479 1479 1480 1480 1479 1478 1479 1482 1485 1488 1490 1492 1495 1499 1502 1505 1509 1512 1514 1517 1519 1520 1522 1524 1526 1528 1530 1531 1533 1533 1534 1535 1535 1536 1537 1537 1537 1537 1537 1537 1536 1536 1535 1536 1536 1535 1536 1537 1537 1537 1538 1538 1539 1540 1541 1542 1543 1545 1545 1546 1547 1548 1549 1551 1554 1556 1554 1554 1555 1556 1556 1557 1558 1558 1558 1558 1559 1561 1562 1562 1563 1563
1474 1476 1477 1477 1477 1478 1477 1477 1477 1478 1481 1484 1487 1490 1492 1496 1499 1502 1506 1509 1512 1515 1518 1520 1522 1524 1527 1529 1531 1531 1532 1533 1534 1534 1535 1536 1537 1537 1538 1538 1538 1539 1538 1537 1536 1536 1535 1535 1536 1536 1536 1537 1537 1537 1537 1538 1539 1540 1541 1543 1544 1545 1545 1547 1547 1549 1550 1552 1553 1553 1553 1554 1555 1556 1557 1558 1558 1558 1559 1559 1561 1562 1563 1563 1563
1473 1475 1475 1475 1475 1475 1476 1476 1476 1478 1481 1485 1488 1491 1493 1497 1501 1504 1507 1511 1514 1517 1520 1522 1523 1526 1529 1531 1531 1532 1533 1534 1534 1535 1536 1536 1537 1538 1538 1539 1540 1540 1540 1539 1538 1537 1536 1536 1536 1536 1536 1536 1536 1536 1537 1537 1538 1539 1541 1542 1543 1544 1545 1546 1547 1548 1549 1551 1552 1552 1553 1554 1555 1556 1557 1558 1558 1559 1560 1560 1561 1563 1563 1564 1564
1470 1472 1472 1473 1473 1474 1475 1476 1478 1481 1484 1487 1491 1493 1496 1500 1503 1506 1509 1513 1516 1518 1521 1523 1525 1528 1531 1532 1532 1533 1534 1535 1535 1536 1536 1537 1538 1538 1539 1540 1541 1542 1542 1541 1539 1538 1537 1536 1536 1536 1535 1535 1535 1535 1536 1537 1538 1539 1540 1542 1543 1544 1544 1545 1547 1548 1549 1550 1551 1551 1553 1553 1554 1556 1557 1558 1559 1560 1561 1561 1563 1564 1564 1564 1565
1469 1472 1473 1473 1473 1474 1476 1479 1481 1484 1486 1490 1494 1497 1501 1504 1505 1508 1511 1513 1517 1519 1522 1524 1526 1529 1532 1534 1534 1534 1535 1536 1536 1537 1537 1538 1538 1538 1539 1540 1541 1542 1542 1541 1540 1539 1538 1537 1536 1536 1536 1535 1535 1536 1536 1537 1538 1539 1541 1542 1543 1544 1544 1544 1545 1546 1547 1548 1550 1551 1552 1552 1553 1555 1557 1558 1560 1561 1562 1563 1564 1564 1564 1565 1565
1470 1474 1475 1474 1474 1475 1477 1480 1482 1484 1488 1493 1498 1501 1505 1507 1506 1508 1510 1512 1515 1518 1521 1524 1525 1528 1532 1535 1536 1536 1536 1537 1537 1538 1538 1538 1538 1538 1538 1539 1540 1541 1541 1541 1540 1539 1538 1537 1537 1536 1536 1535 1535 1535 1536 1537 1538 1539 1540 1541 1543 1544 1543 1543 1544 1544 1545 1547 1550 1551 1552 1552 1553 1554 1556 1557 1558 1561 1563 1564 1565 1566 1566 1566 1567
1470 1474 1475 1475 1474 1475 1478 1481 1482 1485 1491 1496 1499 1501 1504 1506 1506 1507 1509 1511 1514 1517 1519 1522 1523 1525 1529 1533 1536 1537 1536 1537 1537 1537 1537 1537 1538 1538 1538 1539 1539 1540 1541 1541 1540 1539 1538 1538 1537 1536 1536 1536 1535 1535 1536 1537 1538 1539 1540 1541 1542 1543 1543 1543 1544 1544 1545 1547 1549 1550 1552 1553 1553 1554 1555 1556 1557 1559 1562 1563 1565 1566 1566 1567 1567
1470 1473 1474 1473 1473 1476 1481 1484 1485 1487 1492 1496 1498 1500 1501 1502 1504 1506 1508 1510 1513 1515 1517 1519 1520 1523 1529 1532 1534 1536 1536 1536 1536 1535 1536 1537 1537 1538 1538 1538 1538 1539 1539 1540 1540 1539 1538 1537 1536 1536 1536 1536 1536 1536 1536 1537 1539 1539 1540 1541 1542 1542 1543 1543 1544 1545 1546 1547 1549 1550 1551 1552 1552 1553 1555 1557 1557 1559 1561 1563 1564 1566 1566 1567 1568
1470 1471 1471 1472 1473 1476 1480 1484 1488 1491 1494 1497 1499 1499 1500 1501 1503 1504 1506 1509 1511 1514 1516 1517 1517 1522 1529 1531 1533 1535 1535 1535 1535 1535 1535 1536 1536 1537 1537 1537 1537 1537 1538 1539 1539 1538 1538 1537 1536 1535 1535 1535 1535 1536 1536 1537 1538 1539 1540 1541 1541 1542 1543 1543 1544 1545 1545 1547 1548 1548 1549 1550 1551 1553 1554 1556 1558 1559 1561 1563 1564 1565 1566 1568 1569
1468 1469 1471 1474 1475 1476 1478 1481 1487 1493 1496 1500 1501 1499 1498 1499 1500 1501 1503 1505 1508 1511 1514 1515 1518 1521 1526 1529 1531 1534 1535 1535 1534 1534 1534 1535 1536 1536 1536 1536 1536 1536 1537 1538 1538 1537 1536 1536 1535 1535 1535 1535 1535 1536 1536 1537 1538 1539 1540 1541 1541 1542 1543 1543 1544 1544 1545 1546 1547 1548 1549 1550 1551 1552 1554 1555 1557 1559 1560 1562 1564 1565 1566 1568 1569
1466 1469 1473 1476 1476 1477 1479 1481 1485 1493 1499 1502 1502 1501 1499 1497 1497 1498 1500 1502 1504 1508 1510 1513 1517 1521 1524 1527 1530 1533 1534 1534 1534 1534 1534 1535 1536 1536 1536 1536 1535 1536 1536 1536 1536 1536 1535 1535 1535 1534 1534 1535 1535 1536 1537 1537 1537 1538 1539 1540 1540 1541 1542 1543 1544 1544 1545 1546 1547 1548 1549 1550 1551 1552 1554 1555 1557 1558 1560 1561 1563 1565 1566 1568 1569
1465 1470 1475 1475 1474 1475 1477 1481 1485 1491 1498 1502 1503 1503 1502 1499 1498 1498 1499 1501 1504 1506 1508 1511 1515 1518 1521 1523 1527 1530 1532 1533 1534 1534 1535 1535 1535 1535 1535 1535 1535 1536 1536 1536 1536 1535 1534 1534 1534 1534 1534 1534 1535 1536 1537 1537 1537 1538 1539 1540 1540 1541 1542 1543 1544 1545 1546 1547 1548 1549 1550 1551 1552 1552 1553 1555 1557 1558 1559 1561 1562 1564 1566 1568 1569
1466 1469 1473 1471 1470 1472 1476 1481 1485 1489 1494 1500 1503 1503 1501 1500 1499 1499 1500 1502 1504 1506 1508 1510 1513 1515 1518 1520 1523 1527 1529 1531 1533 1534 1535 1535 1535 1535 1535 1535 1535 1535 1535 1535 1535 1534 1533 1533 1533 1533 1533 1534 1535 1536 1537 1537 1538 1538 1539 1540 1540 1541 1542 1543 1544 1546 1547 1548 1549 1550 1551 1552 1553 1553 1554 1555 1556 1557 1559 1560 1562 1563 1565 1566 1568
1466 1468 1468 1469 1469 1473 1479 1483 1487 1490 1492 1497 1500 1500 1499 1498 1498 1499 1500 1502 1504 1506 1508 1510 1513 1515 1517 1518 1521 1524 1526 1529 1531 1533 1534 1534 1534 1534 1535 1535 1535 1535 1534 1534 1533 1533 1532 1532 1531 1532 1532 1533 1535 1536 1537 1537 1538 1539 1540 1541 1542 1542 1543 1544 1545 1546 1548 1549 1550 1551 1552 1553 1553 1553 1554 1556 1556 1557 1559 1560 1561 1562 1564 1565 1567
1465 1466 1466 1468 1471 1476 1482 1485 1488 1491 1492 1494 1498 1499 1498 1497 1498 1498 1500 1502 1504 1507 1509 1511 1513 1515 1516 1518 1519 1521 1523 1526 1528 1530 1532 1533 1533 1533 1534 1534 1534 1533 1533 1533 1533 1532 1531 1531 1531 1531 1531 1533 1534 1536 1537 1537 1538 1539 1540 1541 1542 1543 1544 1544 1545 1547 1548 1549 1550 1551 1552 1553 1553 1554 1555 1556 1557 1558 1559 1560 1561 1562 1563 1564 1566
1465 1465 1466 1469 1473 1477 1481 1484 1487 1490 1490 1492 1496 1500 1500 1498 1498 1498 1499 1501 1504 1506 1509 1511 1513 1515 1516 1517 1518 1519 1521 1523 1525 1528 1529 1531 1532 1532 1532 1532 1532 1533 1533 1532 1532 1531 1530 1530 1530 1531 1531 1532 1534 1535 1536 1537 1538 1539 1540 1541 1542 1543 1544 1545 1546 1547 1548 1549 1550 1551 1551 1552 1553 1554 1555 1555 1557 1558 1559 1560 1561 1562 1562 1563 1564
1465 1466 1469 1472 1475 1478 1480 1485 1489 1490 1490 1491 1496 1501 1502 1501 1500 1499 1499 1501 1503 1506 1508 1511 1512 1513 1514 1515 1516 1518 1520 1521 1523 1526 1528 1529 1530 1530 1531 1531 1531 1532 1532 1532 1531 1530 1530 1530 1530 1531 1531 1532 1533 1535 1536 1537 1538 1539 1539 1541 1542 1543 1544 1545 1546 1547 1548 1549 1550 1550 1551 1552 1553 1554 1555 1556 1557 1558 1559 1560 1560 1561 1561 1562 1562
1468 1470 1473 1474 1476 1479 1483 1487 1489 1489 1492 1493 1496 1501 1504 1504 1503 1501 1501 1502 1504 1507 1509 1511 1512 1513 1514 1515 1516 1517 1518 1520 1522 1524 1526 1527 1529 1529 1529 1530 1530 1531 1531 1531 1531 1530 1530 1530 1531 1531 1532 1532 1533 1534 1536 1537 1537 1539 1540 1541 1541 1542 1543 1544 1545 1546 1548 1549 1550 1550 1552 1553 1554 1555 1556 1558 1559 1560 1560 1560 1560 1561 1561 1561 1562
1472 1474 1476 1476 1479 1482 1485 1488 1487 1488 1492 1494 1497 1503 1505 1506 1505 1503 1503 1503 1505 1508 1509 1511 1512 1513 1514 1515 1515 1516 1517 1519 1520 1522 1524 1526 1527 1528 1529 1529 1530 1530 1531 1531 1531 1530 1531 1531 1531 1531 1532 1533 1533 1534 1536 1536 1538 1539 1540 1541 1541 1542 1543 1544 1545 1547 1548 1549 1550 1551 1553 1554 1555 1556 1557 1558 1559 1560 1560 1560 1561 1561 1561 1562 1562
1474 1476 1478 1480 1482 1483 1485 1487 1487 1488 1492 1495 1500 1504 1506 1506 1506 1504 1504 1505 1506 1508 1509 1511 1512 1513 1514 1515 1515 1516 1517 1519 1520 1521 1523 1525 1527 1528 1529 1529 1530 1530 1530 1530 1531 1530 1531 1531 1531 1532 1532 1533 1534 1535 1536 1537 1538 1539 1540 1541 1542 1543 1544 1544 1546 1547 1548 1549 1550 1551 1553 1554 1555 1556 1558 1559 1560 1560 1561 1561 1561 1562 1562 1563 1563
1476 1478 1480 1483 1484 1484 1486 1487 1488 1490 1494 1497 1501 1503 1505 1506 1506 1505 1505 1505 1507 1508 1509 1511 1512 1513 1514 1514 1515 1516 1517 1518 1519 1520 1522 1524 1526 1527 1529 1530 1530 1530 1530 1530 1531 1531 1531 1532 1532 1533 1533 1533 1534 1535 1537 1538 1539 1540 1540 1542 1543 1543 1544 1545 1546 1548 1549 1550 1550 1551 1552 1554 1555 1556 1558 1559 1560 1561 1561 1561 1561 1562 1562 1563 1564
1478 1480 1482 1484 1485 1486 1487 1488 1490 1493 1495 1498 1500 1502 1503 1504 1505 1505 1505 1506 1507 1508 1509 1510 1512 1513 1513 1514 1514 1515 1516 1517 1518 1520 1522 1523 1525 1527 1529 1529 1530 1530 1530 1530 1531 1531 1531 1532 1533 1534 1534 1534 1535 1536 1537 1538 1539 1540 1541 1542 1543 1544 1545 1546 1547 1548 1549 1550 1550 1552 1553 1554 1555 1556 1557 1559 1560 1560 1561 1561 1561 1562 1563 1564 1565
1480 1481 1483 1484 1485 1487 1489 1490 1492 1494 1496 1498 1500 1501 1502 1503 1504 1505 1506 1507 1507 1508 1508 1510 1512 1513 1513 1513 1514 1514 1515 1517 1518 1521 1522 1523 1525 1527 1528 1529 1529 1529 1530 1530 1531 1531 1532 1533 1533 1534 1535 1535 1536 1536 1538 1539 1540 1541 1542 1543 1543 1544 1545 1546 1547 1548 1549 1550 1551 1552 1553 1554 1555 1556 1557 1559 1560 1560 1561 1561 1562 1562 1563 1564 1564
1481 1482 1484 1485 1486 1488 1489 1491 1493 1495 1496 1498 1499 1500 1502 1503 1504 1505 1506 1507 1508 1508 1508 1509 1511 1512 1513 1513 1513 1514 1515 1517 1519 1520 1522 1523 1525 1527 1528 1529 1529 1529 1529 1530 1530 1531 1532 1533 1534 1535 1535 1536 1536 1537 1539 1540 1542 1543 1543 1544 1544 1545 1546 1547 1548 1549 1549 1550 1551 1552 1553 1554 1555 1556 1558 1559 1560 1560 1561 1562 1562 1562 1562 1563 1564
1483 1484 1486 1486 1488 1489 1490 1492 1494 1495 1497 1498 1499 1500 1501 1503 1504 1505 1507 1507 1508 1508 1508 1509 1511 1511 1512 1513 1513 1514 1515 1517 1518 1520 1522 1523 1525 1527 1527 1528 1528 1529 1529 1530 1530 1531 1533 1534 1535 1535 1536 1537 1537 1538 1540 1542 1543 1544 1545 1545 1546 1546 1547 1548 1548 1549 1549 1550 1551 1552 1553 1554 1555 1556 1557 1558 1559 1560 1561 1562 1563 1562 1562 1563 1564
1486 1487 1488 1489 1490 1492 1492 1494 1495 1496 1497 1498 1499 1501 1501 1503 1504 1505 1506 1507 1507 1508 1509 1510 1510 1511 1512 1513 1514 1515 1515 1517 1518 1520 1522 1523 1524 1526 1526 1527 1527 1528 1528 1530 1530 1532 1533 1535 1536 1537 1537 1538 1538 1539 1541 1543 1544 1545 1546 1546 1547 1547 1548 1548 1549 1549 1550 1550 1551 1552 1552 1553 1554 1555 1556 1557 1558 1560 1560 1561 1562 1562 1563 1563 1563
1488 1490 1491 1491 1493 1493 1494 1496 1496 1497 1498 1499 1500 1501 1502 1503 1504 1505 1506 1506 1508 1509 1509 1510 1510 1511 1513 1513 1514 1515 1516 1517 1519 1520 1521 1522 1523 1524 1525 1526 1527 1527 1528 1529 1531 1532 1534 1535 1537 1538 1539 1539 1540 1541 1543 1544 1545 1546 1547 1547 1547 1548 1548 1548 1549 1549 1550 1550 1551 1551 1551 1552 1552 1553 1554 1555 1557 1558 1559 1560 1561 1562 1562 1562 1562
1491 1492 1493 1494 1494 1495 1495 1497 1497 1498 1499 1499 1500 1501 1501 1503 1503 1504 1506 1507 1508 1509 1510 1510 1511 1512 1513 1513 1514 1516 1516 1518 1518 1519 1520 1521 1522 1523 1523 1525 1527 1528 1529 1530 1531 1532 1533 1535 1536 1538 1539 1541 1542 1543 1544 1545 1546 1547 1547 1547 1548 1548 1548 1548 1549 1549 1549 1549 1549 1549 1549 1550 1550 1550 1552 1554 1555 1557 1558 1559 1560 1560 1560 1560 1561
1493 1495 1496 1497 1497 1497 1497 1498 1498 1500 1500 1501 1502 1502 1503 1504 1505 1506 1508 1509 1510 1511 1511 1512 1512 1513 1513 1514 1515 1516 1517 1518 1518 1519 1520 1521 1521 1522 1523 1524 1526 1527 1528 1528 1529 1530 1532 1533 1535 1537 1540 1541 1542 1544 1545 1546 1547 1547 1547 1547 1547 1547 1547 1547 1547 1548 1548 1548 1547 1548 1549 1549 1549 1549 1551 1552 1554 1555 1556 1557 1558 1559 1559 1559 1560
1495 1497 1497 1498 1498 1498 1498 1498 1499 1501 1501 1502 1504 1505 1505 1506 1507 1508 1509 1510 1511 1512 1512 1513 1513 1514 1515 1515 1516 1517 1517 1518 1518 1519 1520 1520 1521 1521 1522 1523 1524 1525 1526 1526 1527 1529 1530 1532 1533 1535 1537 1538 1539 1541 1543 1544 1545 1546 1546 1546 1546 1546 1546 1546 1546 1546 1547 1546 1546 1547 1548 1548 1549 1549 1550 1551 1551 1553 1554 1556 1557 1558 1558 1558 1559
1497 1498 1498 1499 1500 1500 1499 1500 1500 1501 1501 1501 1503 1504 1507 1508 1509 1511 1512 1512 1512 1513 1513 1514 1514 1515 1516 1517 1518 1518 1518 1518 1518 1519 1519 1520 1520 1521 1521 1522 1523 1524 1525 1525 1526 1527 1528 1530 1532 1533 1534 1534 1535 1537 1539 1541 1543 1544 1545 1545 1545 1545 1545 1545 1545 1545 1545 1544 1544 1546 1546 1547 1547 1548 1549 1549 1550 1551 1552 1553 1555 1556 1557 1557 1558
1499 1500 1501 1503 1503 1503 1503 1503 1503 1503 1503 1503 1503 1504 1507 1509 1510 1512 1513 1514 1514 1514 1515 1516 1516 1517 1518 1518 1519 1519 1519 1519 1518 1518 1519 1519 1520 1520 1520 1521 1521 1522 1523 1524 1524 1525 1527 1528 1530 1532 1532 1533 1535 1536 1537 1539 1540 1542 1543 1543 1542 1543 1542 1543 1543 1542 1541 1541 1543 1545 1545 1545 1546 1547 1547 1548 1548 1548 1549 1550 1552 1554 1555 1556 1556
1504 1505 1506 1507 1507 1506 1506 1505 1505 1505 1505 1506 1506 1505 1507 1508 1509 1510 1512 1514 1515 1516 1517 1518 1518 1519 1520 1520 1521 1520 1520 1520 1519 1519 1519 1519 1519 1519 1520 1520 1520 1521 1522 1522 1523 1524 1526 1527 1529 1530 1531 1532 1534 1535 1536 1537 1538 1539 1539 1539 1540 1540 1540 1540 1539 1538 1537 1538 1541 1543 1543 1543 1544 1545 1545 1545 1545 1546 1546 1548 1550 1551 1553 1555 1555
1508 1509 1510 1510 1510 1509 1509 1508 1508 1509 1509 1509 1509 1509 1509 1509 1509 1509 1510 1511 1514 1516 1517 1518 1518 1519 1520 1521 1521 1521 1521 1521 1520 1520 1519 1519 1519 1519 1519 1519 1519 1520 1521 1521 1522 1523 1524 1525 1527 1528 1528 1529 1531 1533 1534 1534 1535 1536 1536 1537 1537 1537 1537 1536 1535 1534 1536 1537 1539 1540 1540 1540 1541 1542 1543 1543 1543 1543 1545 1546 1547 1549 1550 1552 1553
1510 1511 1512 1512 1513 1513 1512 1512 1512 1512 1513 1513 1513 1513 1513 1512 1512 1511 1511 1511 1513 1514 1516 1517 1517 1518 1519 1519 1520 1520 1521 1521 1521 1521 1520 1520 1520 1520 1519 1519 1519 1519 1520 1520 1521 1521 1522 1523 1524 1525 1525 1525 1527 1530 1530 1531 1531 1532 1533 1533 1533 1533 1533 1533 1531 1532 1535 1535 1535 1536 1536 1537 1538 1539 1540 1541 1541 1542 1543 1544 1545 1546 1547 1548 1549
1511 1513 1514 1514 1515 1515 1515 1515 1514 1514 1515 1515 1515 1515 1515 1514 1515 1515 1514 1515 1515 1515 1517 1517 1518 1518 1518 1518 1518 1519 1520 1520 1521 1521 1521 1521 1520 1519 1519 1519 1518 1518 1518 1518 1519 1519 1519 1520 1521 1522 1522 1522 1523 1525 1527 1527 1527 1528 1529 1529 1529 1529 1529 1529 1529 1531 1532 1532 1532 1532 1533 1533 1535 1536 1537 1539 1539 1540 1542 1542 1543 1544 1545 1546 1547
1513 1514 1514 1515 1515 1515 1515 1515 1515 1515 1515 1516 1516 1516 1516 1515 1516 1516 1517 1517 1516 1517 1517 1518 1518 1518 1518 1518 1518 1519 1520 1521 1521 1521 1520 1519 1519 1518 1518 1517 1517 1517 1517 1517 1517 1517 1517 1517 1517 1518 1519 1519 1520 1521 1523 1523 1524 1524 1524 1525 1525 1526 1525 1525 1526 1528 1528 1528 1529 1530 1530 1531 1532 1533 1534 1536 1537 1539 1540 1541 1541 1542 1542 1544 1545
1514 1514 1514 1514 1515 1514 1514 1515 1515 1516 1516 1516 1517 1517 1517 1516 1516 1517 1518 1517 1517 1517 1518 1518 1518 1518 1518 1519 1520 1520 1521 1522 1521 1520 1519 1518 1517 1516 1516 1515 1515 1515 1515 1516 1516 1516 1516 1515 1515 1515 1516 1516 1517 1518 1519 1520 1520 1520 1521 1521 1522 1522 1522 1522 1523 1525 1525 1525 1526 1527 1528 1529 1530 1532 1533 1534 1535 1537 1538 1539 1540 1540 1541 1543 1544
1514 1514 1515 1515 1515 1515 1515 1516 1516 1516 1517 1517 1517 1517 1517 1517 1517 1517 1517 1517 1517 1517 1517 1517 1518 1518 1519 1520 1521 1521 1521 1521 1520 1519 1518 1517 1516 1515 1514 1514 1513 1513 1513 1513 1513 1514 1514 1514 1513 1512 1513 1513 1514 1515 1516 1516 1516 1517 1518 1518 1518 1519 1518 1519 1520 1521 1521 1521 1523 1524 1525 1527 1529 1530 1531 1532 1534 1535 1537 1538 1539 1540 1541 1542 1542
1515 1515 1515 1516 1516 1517 1517 1517 1517 1516 1516 1516 1516 1516 1516 1516 1516 1516 1516 1516 1515 1515 1515 1516 1516 1516 1517 1517 1518 1519 1518 1518 1517 1516 1515 1514 1513 1513 1512 1512 1511 1511 1510 1510 1510 1511 1511 1511 1511 1510 1509 1509 1510 1512 1513 1514 1513 1514 1514 1515 1515 1515 1516 1516 1517 1518 1518 1519 1520 1521 1522 1525 1527 1528 1529 1531 1532 1534 1535 1536 1538 1539 1540 1540 1540
1514 1514 1514 1515 1516 1516 1516 1516 1516 1516 1515 1515 1515 1515 1515 1515 1515 1515 1515 1514 1514 1514 1514 1513 1513 1513 1513 1513 1514 1515 1514 1513 1513 1512 1511 1511 1510 1510 1510 1509 1509 1508 1508 1508 1507 1507 1508 1508 1508 1508 1507 1505 1505 1507 1510 1510 1510 1510 1511 1511 1512 1512 1512 1512 1513 1514 1514 1515 1518 1520 1521 1523 1525 1527 1528 1529 1531 1533 1534 1535 1537 1538 1538 1539 1539
1514 1514 1513 1513 1514 1515 1515 1515 1515 1515 1515 1514 1514 1514 1514 1514 1514 1514 1513 1513 1512 1512 1511 1511 1510 1510 1510 1510 1510 1510 1509 1509 1508 1508 1508 1507 1506 1506 1506 1506 1506 1505 1505 1505 1504 1505 1505 1504 1504 1505 1504 1503 1502 1503 1505 1506 1506 1507 1507 1508 1508 1508 1508 1508 1509 1511 1512 1512 1515 1518 1520 1522 1524 1526 1527 1528 1530 1531 1533 1534 1536 1537 1537 1538 1538
1513 1513 1512 1512 1513 1514 1513 1514 1514 1514 1514 1514 1514 1514 1514 1514 1514 1513 1513 1512 1512 1511 1510 1509 1509 1508 1507 1507 1506 1505 1505 1505 1504 1504 1504 1503 1503 1503 1502 1502 1502 1502 1502 1502 1502 1502 1501 1501 1501 1501 1500 1500 1500 1500 1501 1503 1503 1503 1503 1504 1504 1504 1504 1506 1508 1510 1511 1511 1514 1517 1519 1520 1522 1524 1526 1527 1529 1530 1532 1533 1534 1535 1536 1537 1537
1513 1512 1512 1512 1513 1513 1513 1514 1513 1513 1513 1513 1513 1514 1514 1514 1513 1513 1512 1512 1511 1510 1509 1508 1507 1506 1506 1505 1504 1503 1502 1502 1501 1501 1500 1500 1500 1500 1499 1499 1499 1499 1499 1499 1499 1499 1498 1498 1498 1497 1496 1496 1496 1496 1498 1499 1500 1499 1499 1500 1500 1501 1502 1504 1507 1509 1509 1511 1514 1516 1518 1519 1521 1523 1524 1526 1528 1529 1531 1532 1533 1534 1535 1535 1536
1513 1512 1512 1512 1512 1513 1513 1513 1513 1513 1513 1513 1514 1514 1514 1513 1513 1512 1511 1511 1510 1508 1507 1506 1505 1504 1503 1503 1502 1501 1501 1500 1499 1498 1497 1497 1496 1496 1496 1496 1496 1496 1496 1496 1495 1495 1495 1495 1495 1494 1493 1493 1493 1493 1495 1496 1496 1496 1496 1496 1497 1499 1500 1502 1504 1507 1509 1511 1513 1515 1517 1518 1520 1522 1523 1525 1526 1528 1529 1530 1531 1532 1533 1533 1533
1512 1512 1511 1511 1512 1513 1513 1513 1513 1513 1513 1513 1514 1513 1513 1512 1512 1511 1510 1509 1508 1506 1505 1504 1503 1501 1500 1500 1499 1498 1497 1496 1495 1494 1494 1493 1493 1493 1493 1493 1493 1493 1494 1493 1493 1492 1492 1492 1492 1491 1490 1489 1490 1491 1492 1493 1493 1493 1493 1493 1495 1497 1498 1499 1502 1505 1507 1509 1511 1513 1515 1517 1519 1521 1522 1524 1525 1526 1528 1529 1530 1530 1531 1531 1531
1512 1511 1511 1511 1512 1512 1512 1513 1513 1513 1513 1513 1512 1512 1512 1511 1510 1509 1508 1506 1505 1504 1502 1501 1500 1499 1498 1497 1496 1495 1494 1493 1492 1492 1491 1490 1490 1490 1490 1489 1490 1490 1490 1489 1489 1489 1488 1488 1487 1487 1486 1487 1487 1488 1489 1490 1490 1490 1490 1491 1494 1497 1497 1497 1500 1503 1506 1508 1510 1512 1514 1516 1518 1519 1521 1522 1524 1525 1526 1527 1528 1528 1528 1529 1529
1512 1511 1510 1511 1511 1512 1512 1512 1512 1512 1512 1512 1511 1511 1510 1509 1508 1507 1505 1504 1503 1501 1500 1499 1498 1497 1496 1495 1494 1493 1492 1491 1490 1488 1487 1486 1486 1487 1486 1486 1486 1486 1485 1484 1484 1484 1484 1484 1483 1482 1483 1483 1484 1484 1486 1487 1488 1489 1489 1488 1490 1494 1496 1497 1499 1502 1504 1507 1509 1511 1513 1515 1516 1518 1520 1521 1522 1524 1525 1526 1527 1527 1527 1528 1528
1511 1510 1510 1511 1511 1511 1511 1511 1511 1511 1511 1511 1510 1510 1509 1508 1507 1505 1503 1502 1501 1499 1498 1497 1497 1496 1495 1493 1492 1491 1490 1489 1487 1486 1484 1483 1482 1482 1482 1481 1481 1481 1480 1480 1480 1480 1481 1481 1481 1480 1480 1480 1481 1482 1483 1484 1485 1486 1486 1485 1486 1490 1493 1496 1499 1501 1503 1505 1507 1510 1512 1514 1515 1517 1518 1520 1521 1522 1524 1525 1525 1526 1527 1527 1527
1510 1510 1510 1510 1510 1510 1511 1511 1511 1511 1510 1510 1509 1508 1507 1506 1505 1503 1501 1500 1498 1497 1497 1496 1495 1494 1492 1491 1489 1488 1487 1486 1485 1484 1483 1481 1479 1478 1477 1477 1477 1477 1477 1477 1477 1477 1477 1478 1478 1477 1477 1478 1479 1480 1480 1481 1482 1484 1485 1485 1486 1489 1492 1495 1497 1499 1501 1504 1506 1509 1511 1513 1514 1516 1517 1519 1520 1521 1522 1523 1524 1526 1526 1526 1526